Weather in Naryn-Atsagat

Russia / Republic of Buryatia     52°00′12″N   108°17′32″E
temp.,
°C
wind,
m/s
gust,
m/s
humid.,
%
clouds,
%
prec.,
mm/h
press.,
hPa
HPBL,
m
28 february, sun
sun2823:00−24wnw129318 0.0 103720
02:00−25nw129424 0.0 103821
05:00−26nnw119266 0.0 103920
08:00−28n118935 0.0 104119
11:00−19s11790 0.0 1040292
14:00−15wsw246510 0.0 1039826
17:00−15wsw357169 0.0 1038855
20:00−21wnw128750 0.0 104020
1 march, mon
mon123:00−24wsw119347 0.0 104120
02:00−25ene019660 0.0 104020
05:00−27ene119792 0.0 103819
08:00−28ne119779 0.0 103719
11:00−20se118835 0.0 1033233
14:00−15sw127952 0.0 1029411
17:00−15ene018254 0.0 1026258
20:00−22nne119534 0.0 102620
2 march, tue
tue223:00−22ene119859 0.0 102420
02:00−21ene229880 0.0 102121
05:00−24ne119992 0.0 101920
08:00−25ne119985 0.0 101720
11:00−17se118691 0.0 1014248
14:00−12wsw238095 0.0 1011350
17:00−9sw248599 0.1 1010314
20:00−13w229297 0.1 101323
3 march, wed
wed323:00−15w239350 0.0 101424
02:00−17w239440 0.0 101526
05:00−17w239474 0.0 101528
08:00−18w349465 0.1 101779
11:00−12w597225 0.0 10171006
14:00−11wnw696329 0.0 10171153
17:00−13wnw376661 0.0 10181055
20:00−22nw238449 0.0 102226
4 march, thu
thu423:00−25nnw228537 0.0 102426
02:00−28nnw118729 0.0 102624
05:00−29n118839 0.0 102721
08:00−30nnw118722 0.0 103023
11:00−21wsw13740 0.0 1031482
14:00−17wnw34640 0.0 10321029
17:00−18wnw357334 0.0 1033939
20:00−26nw338726 0.0 103828